Wind_Speed
19 15 15 15 17 18 24 29 29 31 27 28 31 33 31 36 36 38 37 33 29 27 28 35 38 42 44 48 50 54 56 60 64 70 74 76 81 88 87 89 94 94 98 104
18 20 16 18 18 23 20 27 27 29 29 30 31 36 37 35 35 36 35 36 33 31 34 36 40 43 45 50 53 58 62 67 72 76 82 82 86 89 94 93 93 95 100 106
24 26 21 17 21 22 17 29 32 26 30 32 34 38 38 41 41 35 36 35 35 37 39 38 42 47 52 54 59 63 66 70 76 79 86 87 89 94 97 100 100 103 104 108
30 30 25 26 25 20 22 30 29 26 28 29 33 37 41 40 43 35 34 35 37 40 40 41 47 50 52 55 60 64 67 70 75 84 88 89 90 97 98 102 102 101 111 111
34 35 28 30 30 27 25 30 32 33 33 33 36 29 40 37 39 34 34 35 37 41 43 46 44 49 50 55 61 66 71 75 77 83 88 93 91 100 100 103 105 111 115 114
41 41 35 31 34 31 29 31 29 33 33 37 40 32 32 42 39 40 30 34 40 46 46 44 48 53 52 58 61 64 71 76 81 83 88 93 94 101 103 104 108 112 116 116
51 47 46 42 41 36 34 34 33 31 33 38 43 38 37 42 37 40 42 44 43 51 44 44 50 50 53 57 62 68 72 75 83 86 88 96 98 102 106 104 109 111 119 117
56 54 53 50 50 44 37 37 36 30 35 37 43 44 41 46 39 44 40 44 48 48 47 48 55 50 55 62 65 69 73 80 83 89 91 96 100 101 104 107 109 111 115 120
55 56 57 55 54 53 51 45 40 35 33 34 42 44 46 50 44 48 42 41 50 51 53 52 64 61 63 64 67 71 76 81 85 89 94 99 102 102 105 109 111 112 118 120
55 56 58 56 56 55 56 54 46 43 39 34 41 47 53 52 50 52 50 50 53 59 59 63 63 67 67 65 69 74 77 83 88 90 94 99 104 102 105 112 112 113 116 122
60 60 61 57 56 56 57 53 51 49 43 38 39 46 59 54 53 54 52 56 60 62 63 66 67 70 70 70 74 77 80 84 90 93 95 98 104 102 106 111 115 113 116 121
68 69 61 61 57 59 63 58 63 56 48 47 46 44 59 63 57 54 54 54 61 63 65 67 69 71 71 73 77 80 84 87 89 91 95 98 102 103 105 111 116 115 117 119
76 72 69 67 67 65 63 68 65 62 55 55 53 49 65 67 64 60 55 55 56 59 64 66 70 72 72 76 79 80 84 89 89 92 96 98 101 105 106 109 114 114 116 117
80 78 70 74 71 66 63 69 68 64 62 61 53 56 68 71 72 67 61 57 55 61 63 69 70 72 74 77 80 83 84 90 91 92 97 99 103 105 105 109 114 115 116 118
84 80 81 76 74 68 67 66 70 71 65 59 51 52 68 79 76 70 66 62 59 61 64 66 68 71 73 77 79 85 86 90 94 93 97 101 104 103 105 108 113 115 117 118
91 89 85 85 86 85 75 72 68 71 69 64 61 58 73 77 77 73 68 63 63 64 67 66 70 69 73 78 78 83 86 90 95 96 97 100 103 104 104 107 111 115 116 118
97 96 95 87 88 87 77 71 71 68 70 68 64 65 73 78 78 77 73 68 70 69 67 70 70 70 71 76 79 85 86 90 94 98 98 99 102 103 103 105 110 113 115 117
99 98 100 89 89 90 77 75 72 75 75 73 72 71 74 77 77 76 75 74 72 69 70 70 73 72 72 76 80 85 86 90 93 97 97 99 102 102 102 105 108 112 116 116
102 103 103 100 98 91 77 72 80 83 77 76 75 75 77 82 76 77 81 74 70 71 75 72 73 73 73 76 81 84 85 91 94 96 97 97 101 101 99 103 107 111 115 117
103 101 107 105 103 97 77 83 81 78 74 78 81 80 83 81 78 79 79 75 72 75 74 74 75 75 74 78 82 85 88 90 91 96 97 97 100 98 98 101 105 109 114 117
117 116 109 110 110 99 85 87 88 84 80 87 88 86 86 84 83 80 80 75 74 72 74 77 79 77 76 79 83 85 88 89 90 94 96 96 99 97 99 101 103 109 113 116
104 109 107 105 106 98 83 95 95 94 95 92 87 87 85 82 82 84 83 80 76 75 74 76 79 79 78 81 83 85 84 89 88 94 93 95 98 96 97 102 102 108 112 116
112 103 112 110 105 96 92 95 100 101 99 101 103 95 91 91 90 88 87 84 78 75 73 77 79 79 79 80 82 82 85 88 88 92 91 95 96 95 96 101 101 107 112 115
105 97 104 111 94 95 98 96 95 96 101 105 104 99 96 94 90 88 89 86 78 76 78 79 80 80 80 82 80 82 85 86 87 89 92 94 94 95 97 101 102 106 111 113
114 121 101 95 87 91 95 94 96 98 100 101 100 102 102 99 95 92 92 92 87 85 84 82 83 84 83 83 81 83 86 85 85 87 91 95 93 93 96 99 103 104 108 111
115 117 120 114 111 104 102 104 102 102 103 104 103 99 97 97 94 92 92 89 89 90 87 86 85 82 82 82 83 84 84 84 84 87 92 93 93 94 96 99 103 105 109 111
Wind_Direction
317 332 331 321 306 319 308 326 343 333 325 317 311 310 318 327 332 331 332 333 326 324 324 328 335 338 344 343 342 341 342 343 341 345 344 348 348 348 347 350 348 343 342 342
303 308 329 330 330 333 321 331 346 350 336 327 316 313 318 332 337 336 331 330 327 325 328 335 334 340 342 344 344 344 343 342 343 344 344 345 347 345 350 346 351 349 345 345
292 293 304 318 319 326 302 324 331 347 351 334 333 319 330 332 332 339 336 339 336 335 335 335 336 343 345 345 344 343 341 342 344 344 346 344 346 349 349 349 352 351 351 347
278 286 298 302 311 316 297 319 320 330 337 330 339 324 332 333 331 343 336 338 334 332 336 336 344 349 351 352 348 347 345 345 343 345 346 346 346 349 351 349 352 352 354 348
270 275 290 300 300 307 293 316 317 320 329 330 332 331 344 340 342 344 342 345 341 339 337 342 353 352 353 350 346 345 347 345 343 344 348 348 349 347 349 349 353 352 352 349
266 271 276 291 295 298 293 301 316 317 320 327 326 323 337 350 337 334 338 341 344 345 340 342 345 344 347 348 347 344 347 346 346 344 345 347 347 349 349 352 353 353 354 350
267 269 274 275 282 295 293 295 300 312 314 316 319 316 328 340 338 339 331 327 332 336 335 341 345 343 347 345 345 348 346 344 347 346 346 346 349 350 350 351 351 354 353 352
272 275 274 276 280 283 292 289 294 304 307 312 312 310 320 330 333 334 337 335 335 338 335 333 339 339 341 342 346 349 347 346 346 346 345 346 348 348 349 352 351 353 354 352
269 271 273 277 279 281 283 286 290 294 302 313 305 304 308 323 322 326 332 327 329 332 332 337 337 338 337 339 342 344 344 345 344 344 344 345 347 347 349 349 352 355 352 352
275 275 276 272 273 281 281 281 287 289 298 306 306 302 300 314 315 319 322 321 321 325 324 330 329 335 334 335 337 339 342 344 344 343 344 344 345 347 348 350 350 353 352 353
270 275 278 273 280 278 279 278 282 286 289 296 305 300 292 303 308 310 319 316 318 321 319 322 326 329 331 332 333 336 338 339 342 343 343 343 344 346 346 349 349 352 351 352
272 273 272 271 276 281 278 279 278 280 284 289 297 299 285 298 301 308 316 317 316 319 318 323 323 325 327 328 329 332 335 337 339 342 342 343 343 344 346 349 348 351 350 352
272 273 270 269 272 273 281 275 276 279 284 292 290 292 288 291 297 304 310 314 318 318 317 324 321 322 322 325 327 329 333 336 338 339 340 342 342 342 345 347 347 350 352 353
267 269 266 270 267 271 275 276 277 280 283 286 292 288 285 286 292 301 305 311 314 313 316 322 319 320 319 322 325 326 329 334 335 337 339 341 341 340 343 345 346 349 349 351
263 267 266 264 268 269 269 274 280 279 279 286 281 287 284 283 293 299 301 308 308 309 315 319 316 321 320 321 322 324 327 331 333 334 337 339 339 339 341 344 345 347 348 350
263 266 262 264 267 268 270 280 278 279 277 278 277 285 279 286 292 295 300 307 306 306 312 315 315 320 321 321 321 322 325 328 330 332 334 336 337 338 339 343 345 346 348 349
261 263 260 260 262 268 272 276 275 278 279 276 281 278 280 285 288 293 299 303 301 309 312 310 313 316 319 320 319 321 324 328 329 330 331 334 335 336 338 342 344 345 346 348
258 259 258 258 262 268 271 270 269 279 276 275 278 277 278 281 287 290 295 297 303 309 306 310 311 313 316 319 318 320 324 325 328 329 329 331 333 334 335 341 343 343 346 346
256 258 259 259 264 265 264 269 270 269 273 278 281 274 275 278 283 289 292 298 303 302 303 306 310 310 313 316 317 317 322 323 325 326 327 329 331 331 334 339 341 343 344 344
255 258 259 259 263 262 259 266 265 265 271 274 272 274 276 279 284 285 290 294 299 301 301 302 307 308 310 313 314 315 319 321 323 323 325 326 329 329 332 337 340 342 343 343
256 254 257 260 263 257 258 260 260 264 265 266 270 271 274 276 279 283 286 293 296 297 299 301 303 305 308 311 312 314 316 318 320 321 322 323 327 327 330 334 338 341 342 342
252 254 253 254 257 260 259 251 256 257 262 266 270 271 273 277 278 279 280 284 287 291 293 298 300 301 305 307 309 312 313 315 318 317 320 321 324 326 329 332 337 339 340 340
249 253 253 252 254 256 256 257 258 260 261 265 265 267 271 273 276 276 279 282 287 287 291 293 295 298 301 304 305 307 311 311 314 316 317 320 323 324 327 330 336 337 339 339
250 251 250 253 258 256 257 258 259 261 262 262 263 266 268 271 272 272 277 279 281 282 286 287 291 293 295 298 301 304 306 308 312 314 315 318 321 323 327 330 333 336 338 338
246 246 251 253 255 259 263 263 260 258 258 260 263 266 266 269 272 273 276 277 277 278 282 283 287 290 293 296 298 302 302 306 310 311 313 316 319 322 326 327 330 334 336 336
246 246 248 252 253 256 257 260 263 264 265 267 268 267 267 270 272 273 274 275 276 276 279 280 286 290 292 293 296 297 300 305 309 310 311 315 317 321 324 325 328 331 333 335
Height
10700 10699 10698 10696 10695 10695 10693 10691 10688 10683 10680 10676 10674 10670 10671 10668 10664 10659 10654 10650 10645 10642 10639 10635 10629 10623 10617 10608 10600 10592 10583 10573 10562 10551 10539 10525 10508 10492 10473 10453 10433 10414 10390 10365
10696 10695 10694 10693 10692 10690 10688 10687 10684 10679 10675 10672 10669 10666 10666 10665 10660 10656 10651 10647 10643 10639 10636 10631 10624 10618 10611 10603 10595 10585 10576 10565 10554 10542 10529 10514 10499 10481 10464 10448 10428 10403 10375 10352
10691 10690 10690 10689 10687 10686 10684 10684 10681 10676 10672 10668 10665 10660 10661 10659 10654 10651 10646 10643 10639 10635 10631 10626 10619 10612 10605 10598 10589 10579 10569 10558 10547 10535 10522 10507 10492 10475 10453 10430 10407 10387 10367 10344
10686 10684 10685 10684 10683 10681 10679 10678 10676 10672 10668 10663 10662 10656 10657 10654 10649 10647 10642 10638 10633 10629 10625 10620 10614 10607 10600 10591 10582 10572 10562 10551 10539 10527 10514 10499 10483 10465 10444 10426 10405 10382 10357 10332
10680 10678 10679 10679 10678 10677 10675 10673 10672 10668 10665 10659 10655 10654 10653 10650 10646 10643 10639 10634 10629 10623 10619 10614 10608 10602 10593 10585 10575 10566 10555 10544 10531 10519 10506 10492 10476 10457 10438 10417 10393 10370 10345 10321
10672 10671 10672 10672 10672 10671 10670 10668 10667 10664 10661 10656 10649 10647 10649 10646 10642 10638 10634 10629 10624 10618 10613 10608 10603 10595 10587 10579 10570 10559 10549 10538 10525 10513 10500 10485 10469 10451 10430 10408 10384 10362 10341 10316
10662 10664 10665 10665 10665 10664 10663 10661 10661 10659 10656 10653 10646 10640 10643 10642 10638 10634 10629 10623 10619 10614 10607 10602 10596 10589 10581 10572 10563 10553 10543 10531 10519 10506 10493 10478 10462 10444 10426 10406 10382 10358 10336 10313
10654 10657 10657 10657 10657 10657 10656 10653 10652 10654 10651 10648 10641 10634 10636 10636 10634 10630 10625 10620 10614 10608 10602 10597 10590 10583 10575 10566 10558 10548 10536 10525 10513 10499 10486 10472 10455 10438 10420 10400 10378 10353 10333 10309
10642 10647 10647 10648 10648 10648 10648 10646 10644 10645 10646 10644 10637 10627 10624 10630 10627 10623 10620 10614 10608 10604 10598 10591 10584 10578 10569 10560 10551 10541 10530 10519 10505 10492 10479 10465 10449 10432 10413 10394 10373 10347 10328 10304
10632 10634 10636 10638 10639 10639 10638 10638 10637 10636 10639 10639 10635 10623 10613 10621 10618 10616 10613 10608 10603 10598 10592 10585 10578 10571 10563 10554 10544 10534 10523 10512 10499 10485 10472 10458 10443 10425 10407 10387 10368 10343 10324 10298
10618 10621 10627 10627 10629 10628 10629 10629 10628 10627 10630 10631 10631 10621 10598 10609 10610 10608 10606 10600 10594 10589 10583 10577 10570 10563 10555 10547 10537 10526 10516 10504 10493 10479 10465 10452 10436 10418 10400 10382 10363 10339 10319 10296
10601 10608 10614 10615 10616 10618 10618 10616 10616 10618 10622 10623 10623 10620 10588 10594 10597 10600 10600 10594 10585 10580 10574 10570 10563 10555 10547 10539 10529 10519 10509 10498 10486 10474 10459 10445 10429 10413 10394 10377 10359 10336 10314 10291
10587 10593 10598 10603 10605 10604 10606 10602 10604 10608 10612 10616 10612 10610 10584 10579 10585 10590 10592 10587 10580 10573 10566 10561 10553 10546 10539 10531 10522 10512 10503 10491 10479 10466 10453 10439 10423 10407 10389 10372 10355 10332 10310 10288
10566 10574 10583 10588 10587 10588 10594 10591 10594 10597 10603 10602 10604 10600 10576 10565 10570 10578 10579 10577 10573 10563 10557 10552 10544 10537 10531 10523 10514 10504 10495 10484 10472 10459 10445 10431 10415 10400 10384 10368 10349 10328 10307 10286
10547 10559 10563 10567 10569 10573 10579 10584 10584 10588 10589 10590 10594 10591 10567 10549 10560 10564 10567 10568 10564 10556 10550 10544 10536 10529 10522 10514 10506 10495 10485 10475 10463 10451 10438 10424 10409 10395 10378 10361 10344 10326 10302 10283
10530 10541 10543 10549 10552 10555 10566 10575 10575 10577 10576 10576 10577 10581 10547 10544 10544 10548 10552 10555 10551 10547 10542 10535 10527 10519 10512 10504 10496 10486 10476 10466 10455 10443 10430 10418 10403 10388 10373 10357 10339 10321 10299 10280
10511 10520 10524 10533 10530 10533 10557 10566 10559 10562 10562 10558 10564 10561 10540 10535 10534 10534 10538 10540 10537 10536 10531 10523 10516 10509 10502 10494 10486 10477 10467 10457 10447 10435 10423 10410 10397 10383 10367 10351 10334 10316 10297 10278
10494 10498 10497 10510 10508 10516 10555 10548 10546 10545 10544 10542 10543 10542 10530 10522 10523 10523 10524 10524 10526 10523 10517 10512 10505 10498 10491 10484 10475 10466 10457 10447 10437 10426 10415 10403 10390 10377 10361 10346 10328 10311 10292 10276
10471 10476 10476 10479 10489 10510 10537 10538 10527 10524 10531 10526 10524 10517 10514 10507 10515 10511 10505 10512 10513 10509 10504 10499 10493 10487 10480 10473 10465 10455 10447 10437 10427 10417 10406 10395 10383 10369 10356 10340 10322 10303 10287 10270
10449 10454 10453 10460 10465 10489 10531 10506 10506 10506 10527 10501 10490 10499 10495 10499 10502 10495 10493 10499 10499 10496 10492 10487 10481 10475 10469 10462 10453 10444 10436 10428 10418 10407 10397 10387 10376 10362 10348 10333 10317 10299 10283 10266
10425 10430 10432 10436 10440 10472 10495 10492 10485 10488 10493 10478 10478 10481 10481 10485 10483 10484 10480 10481 10481 10480 10477 10473 10468 10463 10456 10450 10442 10434 10426 10418 10408 10397 10388 10378 10367 10353 10340 10326 10311 10294 10278 10261
10399 10400 10409 10410 10416 10453 10469 10450 10464 10462 10464 10460 10457 10459 10463 10466 10468 10467 10466 10466 10466 10464 10461 10457 10454 10449 10444 10438 10431 10423 10416 10408 10399 10387 10378 10368 10357 10345 10332 10316 10303 10287 10272 10255
10369 10390 10383 10383 10406 10421 10437 10445 10439 10436 10439 10438 10436 10437 10443 10447 10448 10448 10450 10452 10451 10448 10446 10442 10439 10435 10431 10425 10418 10411 10404 10395 10388 10377 10366 10357 10347 10335 10322 10307 10295 10281 10265 10249
10353 10358 10362 10361 10405 10406 10402 10410 10417 10415 10413 10409 10411 10416 10420 10424 10428 10433 10434 10435 10435 10433 10431 10428 10425 10421 10417 10411 10405 10398 10390 10384 10375 10365 10353 10346 10336 10323 10313 10298 10285 10273 10259 10243
10331 10329 10354 10349 10384 10379 10385 10379 10374 10380 10385 10390 10391 10396 10401 10402 10408 10413 10414 10415 10415 10414 10413 10411 10408 10404 10401 10396 10390 10384 10376 10370 10362 10352 10342 10334 10324 10313 10302 10288 10276 10265 10252 10238
10310 10320 10317 10337 10348 10348 10356 10353 10354 10359 10365 10369 10371 10374 10379 10380 10384 10389 10392 10394 10394 10394 10393 10393 10391 10387 10384 10379 10375 10368 10362 10355 10347 10340 10330 10321 10311 10301 10290 10278 10267 10256 10243 10230